TimeEDT,TemperatureF,Dew PointF,Humidity,Sea Level PressureIn,VisibilityMPH,Wind Direction,Wind SpeedMPH,Gust SpeedMPH,PrecipitationIn,Events,Conditions,WindDirDegrees,DateUTC
12:53 AM,75.9,73.9,94,30.05,10.0,SE,6.9,-,N/A,,Mostly Cloudy,140,2012-10-03 04:53:00
1:31 AM,75.2,73.4,94,30.06,10.0,South,5.8,-,N/A,,Mostly Cloudy,170,2012-10-03 05:31:00
1:53 AM,75.9,73.9,94,30.06,10.0,SSE,5.8,-,N/A,,Mostly Cloudy,150,2012-10-03 05:53:00
2:53 AM,75.0,73.0,94,30.06,10.0,SSE,5.8,-,N/A,,Mostly Cloudy,160,2012-10-03 06:53:00
3:53 AM,75.0,73.0,94,30.06,10.0,SSE,9.2,-,N/A,,Partly Cloudy,160,2012-10-03 07:53:00
4:53 AM,75.9,73.0,91,30.06,10.0,South,5.8,-,N/A,,Clear,170,2012-10-03 08:53:00
5:53 AM,75.9,73.0,91,30.08,10.0,SSE,4.6,-,N/A,,Partly Cloudy,160,2012-10-03 09:53:00
6:53 AM,75.9,73.0,91,30.08,10.0,Calm,Calm,-,N/A,,Overcast,0,2012-10-03 10:53:00
7:53 AM,75.9,73.0,91,30.10,10.0,SSE,3.5,-,N/A,,Partly Cloudy,150,2012-10-03 11:53:00
8:53 AM,80.1,75.0,85,30.11,10.0,SSE,4.6,-,N/A,,Clear,150,2012-10-03 12:53:00
9:53 AM,82.9,75.9,79,30.13,10.0,SE,9.2,-,N/A,,Partly Cloudy,140,2012-10-03 13:53:00
10:53 AM,86.0,73.0,65,30.12,10.0,SSE,12.7,-,N/A,,Clear,160,2012-10-03 14:53:00
11:53 AM,88.0,73.9,63,30.13,10.0,SE,13.8,-,N/A,,Scattered Clouds,130,2012-10-03 15:53:00
12:53 PM,86.0,75.9,72,30.12,10.0,SE,9.2,-,N/A,,Clear,130,2012-10-03 16:53:00
1:53 PM,88.0,77.0,70,30.11,10.0,ESE,13.8,-,N/A,,Clear,120,2012-10-03 17:53:00
2:53 PM,89.1,75.9,65,30.09,10.0,SE,15.0,-,N/A,,Clear,140,2012-10-03 18:53:00
3:53 PM,87.1,77.0,72,30.09,10.0,SE,15.0,-,N/A,,Scattered Clouds,130,2012-10-03 19:53:00
4:53 PM,87.1,75.9,69,30.09,10.0,ESE,17.3,-,N/A,,Clear,120,2012-10-03 20:53:00
6:53 PM,82.0,77.0,85,30.11,10.0,ESE,10.4,-,N/A,,Clear,120,2012-10-03 22:53:00
7:53 PM,81.0,78.1,91,30.12,10.0,ESE,5.8,-,N/A,,Clear,120,2012-10-03 23:53:00
8:53 PM,81.0,78.1,91,30.15,10.0,ESE,5.8,-,N/A,,Partly Cloudy,120,2012-10-04 00:53:00
9:26 PM,78.8,73.4,83,30.18,10.0,NW,9.2,-,N/A,,Overcast,320,2012-10-04 01:26:00
9:53 PM,79.0,72.0,79,30.18,10.0,NNW,8.1,-,N/A,,Mostly Cloudy,340,2012-10-04 01:53:00
10:53 PM,77.0,72.0,84,30.17,10.0,Calm,Calm,-,N/A,,Clear,0,2012-10-04 02:53:00
11:53 PM,75.9,72.0,87,30.19,10.0,West,4.6,-,N/A,,Clear,280,2012-10-04 03:53:00